Deer Park, WA

2:37 AM PDT on June 25, 2017 (GMT -0700)
Deer Park

Weather History for KDEW - November, 2011

Change the Weather History Date:

Monday, November 14, 2011

  Actual Average Record
Temperature  
Mean Temperature 34 °F 34 °F  
Max Temperature 47 °F 42 °F 62 °F (1999)
Min Temperature 21 °F 27 °F 6 °F (2014)
Degree Days  
Heating Degree Days 31 31  
Month to date heating degree days 435 399  
Since 1 July heating degree days 1389 1467  
Cooling Degree Days 0 0  
Month to date cooling degree days 0 0  
Year to date cooling degree days 96 187  
Moisture  
Dew Point 23 °F    
Average Humidity 60    
Maximum Humidity 82    
Minimum Humidity 37    
Precipitation  
Precipitation T in 0.11 in 0.40 in (2001)
Month to date precipitation 0.27 1.44  
Year to date precipitation 16.14 17.50  
Sea Level Pressure  
Sea Level Pressure 29.79 in    
Wind  
Wind Speed 10 mph (West)    
Max Wind Speed 30 mph    
Max Gust Speed 37 mph    
Visibility 10 miles    
Events Snow    
T = Trace of Precipitation, MM = Missing Value Source: NWS Daily Summary

Daily Weather History Graph

Daily Weather History Graph

Search for Another Location

Airport or City:

Trip Planner

Search our weather history database for the weather conditions in past years. The results will help you decide how hot, cold, wet, or windy it might be!

Date:

Astronomy

Nov. 14, 2011 Rise Set
Actual Time 6:54 AM PST 4:13 PM PST
Civil Twilight 6:20 AM PST 4:47 PM PST
Nautical Twilight 5:42 AM PST 5:24 PM PST
Astronomical Twilight 5:06 AM PST 6:01 PM PST
Moon 7:19 PM PST (11/14) 10:22 AM PST (11/14)
Length of Visible Light 10h 26m
Length of Day
9h 19m
Waning Gibbous, 86% of the Moon is Illuminated
Nov 14
Waning Gibbous
Nov 18
Last Quarter
Nov 24
New
Dec 2
First Quarter
Dec 10
Full

Hourly Weather History & Observations

Time (PST) Temp. Windchill Dew Point Humidity Pressure Visibility Wind Dir Wind Speed Gust Speed Precip Events Conditions
12:53 AM 35.1 °F 26.4 °F 28.9 °F 78% 29.65 in 10.0 mi SSW 12.7 mph - 0.00 in Snow Light Snow
2:53 AM 33.1 °F 27.7 °F 28.9 °F 85% 29.63 in 10.0 mi South 5.8 mph - N/A   Clear
3:53 AM 34.0 °F 26.0 °F 28.9 °F 82% 29.63 in 9.0 mi SSW 10.4 mph - 0.00 in Snow Light Snow
4:53 AM 33.1 °F 27.7 °F 28.9 °F 85% 29.63 in 9.0 mi South 5.8 mph - 0.00 in   Clear
6:53 AM 35.1 °F 25.9 °F 28.9 °F 78% 29.63 in 9.0 mi SSW 13.8 mph - 0.00 in Snow Light Snow
7:53 AM 36.0 °F 29.6 °F 28.9 °F 76% 29.65 in 9.0 mi SW 8.1 mph - 0.00 in Snow Light Snow
8:53 AM 39.0 °F 32.3 °F 28.9 °F 67% 29.67 in 9.0 mi SSW 10.4 mph - 0.00 in   Unknown
9:53 AM 42.1 °F 33.6 °F 28.9 °F 60% 29.67 in 10.0 mi SW 18.4 mph 23.0 mph 0.00 in   Clear
10:53 AM 44.1 °F 35.9 °F 28.0 °F 53% 29.67 in 10.0 mi SW 19.6 mph 24.2 mph N/A   Clear
11:48 AM 39.2 °F 29.0 °F 28.4 °F 65% 29.67 in 10.0 mi NW 21.9 mph 36.8 mph N/A   Mostly Cloudy
11:53 AM 37.9 °F 27.1 °F 28.9 °F 70% 29.72 in 10.0 mi NNW 23.0 mph 36.8 mph 0.00 in Snow Light Snow
12:00 PM 37.4 °F 26.6 °F 28.4 °F 70% 29.68 in 7.0 mi NW 21.9 mph 29.9 mph 0.00 in Snow Light Snow
12:53 PM 39.0 °F 31.0 °F 24.1 °F 55% 29.76 in 10.0 mi NW 13.8 mph 24.2 mph 0.00 in   Overcast
1:53 PM 39.0 °F 29.9 °F 16.0 °F 39% 29.78 in 10.0 mi NW 17.3 mph 23.0 mph N/A   Overcast
2:53 PM 37.9 °F 30.0 °F 15.1 °F 39% 29.83 in 10.0 mi NW 12.7 mph 20.7 mph N/A   Overcast
3:53 PM 36.0 °F 29.0 °F 17.1 °F 46% 29.86 in 10.0 mi NNW 9.2 mph - N/A   Overcast
4:53 PM 35.1 °F 29.3 °F 15.1 °F 44% 29.89 in 10.0 mi WNW 6.9 mph - N/A   Overcast
5:53 PM 32.0 °F 27.5 °F 18.0 °F 56% 29.92 in 10.0 mi WNW 4.6 mph - N/A   Overcast
6:53 PM 33.1 °F 28.7 °F 18.0 °F 54% 29.95 in 10.0 mi West 4.6 mph - N/A   Overcast
7:53 PM 32.0 °F 25.6 °F 18.0 °F 56% 29.96 in 10.0 mi West 6.9 mph - N/A   Overcast
8:53 PM 27.0 °F 21.6 °F 17.1 °F 66% 29.99 in 10.0 mi West 4.6 mph - N/A   Mostly Cloudy
9:53 PM 26.1 °F 20.5 °F 18.0 °F 71% 30.00 in 10.0 mi NW 4.6 mph - N/A   Overcast
10:53 PM 24.1 °F 19.7 °F 18.0 °F 77% 30.01 in 10.0 mi NW 3.5 mph - N/A   Overcast
11:53 PM 24.1 °F - 16.0 °F 71% 30.04 in 10.0 mi Calm Calm - N/A   Clear